Home > Weather > Gunsan > Past weeks

Flag for South Korea Weather for the Past 2 Weeks in Gunsan, South Korea

Now
34 °F

Clear.


Feels Like: 30 °F
Forecast: 28 / 49 °F
Wind: 5 mph from South

Location: Kunsan Ab

Current Time: Feb 10, 2016 at 3:02:34 AM

Latest Report: Feb 10, 2016 at 1:58 AM


Visibility: 10 mi

Pressure: 30.27 "Hg

Humidity: 93%

Dew point: 32 °F

Location of GunsanLocation

Historic Weather in Gunsan — Graph

°F

Gunsan Temperature Yesterday

Maximum temperature yesterday: 43 °F (at 12:58 PM)
Minimum temperature yesterday: 31 °F (at 6:58 AM)
Average temperature yesterday: 37 °F

High & Low Weather Summary for the Past Weeks

 TemperatureHumidityPressure
High46 °F (Feb 4, 1:58 PM)100% (Jan 26, 1:58 AM)30.47 "Hg (Jan 26, 1:58 AM)
Low20 °F (Feb 2, 7:58 AM)34% (Feb 7, 2:58 PM)29.96 "Hg (Feb 8, 5:58 PM)
Average32 °F81%30.31 "Hg
* Reported Jan 26 1:58 AM — Feb 10 1:58 AM, Gunsan, Weather by CustomWeather, © 2016

Note: Actual official high and low records may vary slightly from our data, if they occured in-between our weather recording intervals... More about our weather records

Advertising

Gunsan Weather History for the Previous 24 Hours

 ConditionsComfort  
Time TempWeatherWind HumidityBarometerVisibility
1:58 AM
Wed, Feb 10
34 °FClear.5 mph93%30.27 "Hg10 mi
12:58 AM34 °FClear.5 mph93%30.27 "Hg10 mi
11:58 PM
Tue, Feb 9
34 °FClear.5 mph93%30.27 "Hg10 mi
10:58 PM34 °FClear.5 mph93%30.27 "Hg10 mi
9:58 PM34 °FClear.5 mph93%30.27 "Hg10 mi
8:58 PM35 °FClear.5 mph92%30.27 "Hg10 mi
7:58 PM38 °FClear.2 mph83%30.27 "Hg10 mi
6:58 PM37 °FClear.1 mph76%30.27 "Hg10 mi
5:58 PM39 °FSunny.3 mph57%30.27 "Hg10 mi
2:58 PM43 °FSunny.8 mph51%30.24 "Hg10 mi
1:58 PM43 °FSunny.8 mph46%30.25 "Hg10 mi
12:58 PM43 °FSunny.10 mph38%30.25 "Hg10 mi
11:58 AM43 °FSunny.12 mph36%30.25 "Hg10 mi
10:58 AM42 °FSunny.12 mph37%30.25 "Hg10 mi
9:58 AM40 °FSunny.9 mph43%30.24 "Hg10 mi
8:58 AM36 °FSunny.No wind64%30.22 "Hg10 mi
7:58 AM33 °FSunny.5 mph71%30.20 "Hg10 mi
6:58 AM31 °FClear.2 mph77%30.18 "Hg10 mi
5:58 AM31 °FClear.6 mph84%30.16 "Hg10 mi
4:58 AM31 °FClear.6 mph91%30.13 "Hg9 mi
3:58 AM33 °FFog.5 mph96%30.12 "Hg6 mi
Weather by CustomWeather, © 2016

See weather overviewHow to use our weather pages